• In Belarus
  • List of Countries
  • For 7 days
  • Water Temperature
  • Satellite Maps
  • Weather Map
  • Weather Widgets
  • user-avatar
    Login

    Hourly Weather Posich

    Today, 20 June, Thursday

    Time Temperature Precipitation Wind Pressure Humidity
    00:00 +24°C° 0 mm 2 mps 739 mmHg 83%
    01:00 +24°C° 0 mm 1 mps 739 mmHg 84%
    02:00 +23°C° 0 mm 2 mps 739 mmHg 86%
    03:00 +23°C° 0 mm 2 mps 740 mmHg 86%
    04:00 +21°C° 0 mm 2 mps 739 mmHg 86%
    05:00 +21°C° 0 mm 2 mps 739 mmHg 87%
    06:00 +21°C° 0 mm 2 mps 739 mmHg 88%
    07:00 +23°C° 0 mm 2 mps 740 mmHg 87%
    08:00 +24°C° 0 mm 2 mps 740 mmHg 86%
    09:00 +25°C° 0 mm 1 mps 740 mmHg 85%
    10:00 +26°C° 0 mm 1 mps 740 mmHg 85%
    11:00 +27°C° 0 mm 1 mps 740 mmHg 83%
    12:00 +27°C° 0.9 mm 1 mps 740 mmHg 83%
    13:00 +28°C° 0.2 mm 1 mps 739 mmHg 79%
    14:00 +29°C° 0 mm 1 mps 739 mmHg 76%
    15:00 +28°C° 0.1 mm 4 mps 739 mmHg 81%
    16:00 +28°C° 0 mm 1 mps 738 mmHg 77%
    17:00 +26°C° 0 mm 0 mps 738 mmHg 75%
    18:00 +28°C° 0 mm 1 mps 738 mmHg 77%
    19:00 +28°C° 0 mm 1 mps 738 mmHg 83%
    20:00 +25°C° 0 mm 0 mps 738 mmHg 87%
    21:00 +26°C° 0 mm 1 mps 739 mmHg 88%
    22:00 +24°C° 0 mm 0 mps 739 mmHg 89%
    23:00 +25°C° 0 mm 1 mps 739 mmHg 92%

    Tomorrow, 21 June, Friday

    Time Temperature Precipitation Wind Pressure Humidity
    00:00 +24°C° 0 mm 1 mps 739 mmHg 94%
    01:00 +24°C° 0 mm 1 mps 739 mmHg 92%
    02:00 +24°C° 0 mm 1 mps 739 mmHg 91%
    03:00 +24°C° 0 mm 1 mps 740 mmHg 92%
    04:00 +23°C° 0 mm 1 mps 740 mmHg 93%
    05:00 +23°C° 0 mm 1 mps 740 mmHg 94%
    06:00 +23°C° 0 mm 1 mps 740 mmHg 94%
    07:00 +23°C° 0 mm 1 mps 740 mmHg 94%
    08:00 +22°C° 0 mm 0 mps 741 mmHg 94%
    09:00 +25°C° 0 mm 1 mps 741 mmHg 89%
    10:00 +26°C° 0 mm 1 mps 741 mmHg 86%
    11:00 +27°C° 0 mm 1 mps 741 mmHg 83%
    12:00 +28°C° 0 mm 1 mps 740 mmHg 78%
    13:00 +29°C° 0 mm 1 mps 740 mmHg 73%
    14:00 +30°C° 0 mm 2 mps 739 mmHg 71%
    15:00 +29°C° 0.2 mm 3 mps 739 mmHg 77%
    16:00 +29°C° 0 mm 2 mps 739 mmHg 72%
    17:00 +29°C° 0 mm 3 mps 740 mmHg 77%
    18:00 +27°C° 0 mm 2 mps 739 mmHg 76%
    19:00 +26°C° 0 mm 5 mps 739 mmHg 75%
    20:00 +25°C° 0 mm 1 mps 739 mmHg 79%
    21:00 +24°C° 0 mm 1 mps 740 mmHg 82%
    22:00 +24°C° 0 mm 1 mps 740 mmHg 82%
    23:00 +24°C° 0 mm 1 mps 740 mmHg 78%

    Day after tomorrow, 22 June, Saturday

    Time Temperature Precipitation Wind Pressure Humidity
    00:00 +24°C° 0 mm 1 mps 740 mmHg 80%
    01:00 +24°C° 0 mm 1 mps 740 mmHg 80%
    02:00 +24°C° 0 mm 1 mps 740 mmHg 81%
    03:00 +24°C° 0 mm 1 mps 740 mmHg 82%
    04:00 +23°C° 0 mm 1 mps 740 mmHg 83%
    05:00 +23°C° 0 mm 1 mps 740 mmHg 84%
    06:00 +24°C° 0 mm 1 mps 740 mmHg 86%
    07:00 +24°C° 0 mm 1 mps 741 mmHg 87%
    08:00 +25°C° 0 mm 1 mps 741 mmHg 86%
    09:00 +26°C° 0 mm 2 mps 741 mmHg 83%
    10:00 +27°C° 0 mm 2 mps 741 mmHg 80%
    11:00 +28°C° 0 mm 3 mps 741 mmHg 77%
    12:00 +28°C° 0.1 mm 3 mps 740 mmHg 78%
    13:00 +29°C° 0 mm 2 mps 740 mmHg 75%
    14:00 +29°C° 0 mm 1 mps 740 mmHg 72%
    15:00 +29°C° 0 mm 1 mps 740 mmHg 73%
    16:00 +27°C° 2.6 mm 3 mps 740 mmHg 83%
    17:00 +27°C° 1.9 mm 2 mps 739 mmHg 80%
    18:00 +27°C° 0.2 mm 1 mps 739 mmHg 79%
    19:00 +27°C° 0 mm 1 mps 739 mmHg 83%
    20:00 +24°C° 0 mm 0 mps 739 mmHg 89%
    21:00 +24°C° 0 mm 0 mps 739 mmHg 89%
    22:00 +25°C° 0 mm 1 mps 739 mmHg 91%
    23:00 +25°C° 0 mm 2 mps 739 mmHg 93%

    23 June, Sunday

    Time Temperature Precipitation Wind Pressure Humidity
    00:00 +24°C° 0 mm 1 mps 740 mmHg 92%
    01:00 +24°C° 0 mm 1 mps 739 mmHg 93%
    02:00 +24°C° 0 mm 1 mps 739 mmHg 93%
    03:00 +23°C° 0 mm 1 mps 739 mmHg 93%
    04:00 +23°C° 0 mm 1 mps 739 mmHg 94%
    05:00 +23°C° 0 mm 1 mps 739 mmHg 94%
    06:00 +23°C° 0 mm 1 mps 739 mmHg 94%
    07:00 +23°C° 0 mm 1 mps 740 mmHg 93%
    08:00 +24°C° 0 mm 1 mps 740 mmHg 91%
    09:00 +25°C° 0 mm 1 mps 740 mmHg 88%
    10:00 +26°C° 0 mm 1 mps 740 mmHg 85%
    11:00 +25°C° 0 mm 0 mps 739 mmHg 81%
    12:00 +28°C° 0 mm 1 mps 739 mmHg 78%
    13:00 +29°C° 0 mm 1 mps 739 mmHg 76%
    14:00 +30°C° 0 mm 2 mps 739 mmHg 75%

    24 June, Monday

    Time Temperature Precipitation Wind Pressure Humidity

    25 June, Tuesday

    Time Temperature Precipitation Wind Pressure Humidity
    Show more